contact:dominique.lefevre@mio.osupytheas.fr, maurice.libes@osupytheas.fr, didier.mallarino@osupytheas.fr
Project:EMSO http://www.emso-fr.org/EMSO-France
Depth: 2436.0 m
Title:EMSO Ligure Ouest : Data MII capteur AQUADOPP
Date,Latitude,Longitude,X_East,Y_North,Z_Up,Amplitude_X,Amplitude_Y,Amplitude_Z,Batterie,SoundSpeed,Heading,Pitch,Roll,Pressure,TIS,Speed,Direction
, degrees North, degrees East, m.s-1, m.s-1,m.s-1, 1, 1, 1, Volt, m.s-1, degree, degree, degree, dbar, degree_C, m.s-1, degree
2019-12-13T00:04:03,42.805,6.029,0.094,-0.018,-0.042,102.0,102.0,100.0,13.4,1505.2,324.9,-0.8,1.8,2470.024,13.3,0.095,100.8
2019-12-13T00:07:03,42.805,6.029,0.087,-0.023,-0.041,101.0,102.0,99.0,13.3,1505.3,327.5,-0.7,1.8,2470.059,13.31,0.089,104.8
2019-12-13T00:10:03,42.805,6.029,0.075,-0.005,-0.019,101.0,103.0,99.0,13.3,1505.3,323.6,-0.7,1.8,2470.045,13.31,0.075,93.8
2019-12-13T00:13:03,42.805,6.029,0.088,-0.023,-0.024,100.0,103.0,100.0,13.4,1505.3,325.4,-0.7,1.9,2469.971,13.31,0.09,104.6
2019-12-13T00:16:03,42.805,6.029,0.064,-0.031,-0.046,103.0,103.0,99.0,13.4,1505.3,323.7,-0.7,1.8,2470.007,13.32,0.071,115.8
2019-12-13T00:19:03,42.805,6.029,0.087,-0.01,-0.036,102.0,103.0,100.0,13.4,1505.3,325.4,-0.7,1.8,2470.015,13.32,0.087,96.6
2019-12-13T00:22:03,42.805,6.029,0.066,-0.011,-0.007,101.0,103.0,99.0,13.3,1505.3,323.1,-0.7,1.8,2470.027,13.32,0.066,99.5
2019-12-13T00:25:03,42.805,6.029,0.072,-0.024,-0.024,101.0,102.0,99.0,13.4,1505.3,326.3,-0.7,1.8,2469.997,13.32,0.075,108.4
2019-12-13T00:28:03,42.805,6.029,0.081,-0.037,-0.027,102.0,102.0,101.0,13.3,1505.3,327.5,-0.7,1.8,2469.986,13.32,0.089,114.5
2019-12-13T00:31:03,42.805,6.029,0.09,-0.028,-0.05,102.0,102.0,100.0,13.4,1505.3,326.6,-0.7,1.8,2469.944,13.32,0.094,107.3
2019-12-13T00:34:03,42.805,6.029,0.098,-0.029,-0.042,101.0,102.0,100.0,13.4,1505.3,328.5,-0.7,1.8,2469.979,13.32,0.102,106.5
2019-12-13T00:37:03,42.805,6.029,0.102,-0.035,-0.032,101.0,102.0,100.0,13.4,1505.3,323.7,-0.7,1.8,2470.03,13.32,0.107,108.9
2019-12-13T00:40:03,42.805,6.029,0.082,-0.03,-0.051,102.0,102.0,99.0,13.4,1505.3,326.2,-0.7,1.8,2469.98,13.32,0.087,110.1
2019-12-13T00:43:03,42.805,6.029,0.067,-0.026,-0.034,103.0,102.0,99.0,13.3,1505.3,326.3,-0.7,1.8,2470.01,13.32,0.071,111.2
2019-12-13T00:46:03,42.805,6.029,0.101,-0.023,-0.023,101.0,102.0,100.0,13.4,1505.3,323.8,-0.7,1.8,2469.95,13.32,0.103,102.8
2019-12-13T00:49:03,42.805,6.029,0.075,-0.013,-0.054,101.0,102.0,100.0,13.4,1505.3,323.2,-0.7,1.8,2469.989,13.32,0.076,99.8
2019-12-13T00:52:03,42.805,6.029,0.074,-0.039,-0.031,101.0,102.0,100.0,13.4,1505.3,326.5,-0.7,1.8,2469.943,13.32,0.083,117.8
2019-12-13T00:55:03,42.805,6.029,0.079,-0.021,-0.069,102.0,103.0,100.0,13.3,1505.3,324.6,-0.7,1.8,2469.957,13.32,0.081,104.9
2019-12-13T00:58:03,42.805,6.029,0.056,-0.035,-0.049,101.0,102.0,99.0,13.3,1505.3,326.5,-0.7,1.9,2469.972,13.32,0.066,122.0
2019-12-13T01:04:03,42.805,6.029,0.096,-0.004,-0.011,102.0,102.0,101.0,13.4,1505.2,327.7,-0.7,1.8,2470.025,13.3,0.096,92.4
2019-12-13T01:07:03,42.805,6.029,0.065,-0.029,-0.077,101.0,103.0,99.0,13.4,1505.3,328.3,-0.7,1.8,2470.035,13.31,0.071,114.0
2019-12-13T01:10:03,42.805,6.029,0.085,-0.014,-0.035,102.0,102.0,100.0,13.4,1505.3,328.2,-0.7,1.8,2469.926,13.31,0.086,99.4
2019-12-13T01:13:03,42.805,6.029,0.075,-0.023,-0.049,100.0,102.0,100.0,13.4,1505.3,326.0,-0.7,1.8,2470.003,13.31,0.078,107.0
2019-12-13T01:16:03,42.805,6.029,0.109,-0.029,-0.018,102.0,101.0,100.0,13.4,1505.3,323.0,-0.7,1.8,2469.98,13.32,0.112,104.9
2019-12-13T01:19:03,42.805,6.029,0.091,-0.004,-0.049,101.0,102.0,100.0,13.4,1505.3,324.4,-0.7,1.8,2469.99,13.32,0.091,92.5
2019-12-13T01:22:03,42.805,6.029,0.086,-0.03,-0.047,102.0,103.0,100.0,13.4,1505.3,327.2,-0.7,1.8,2470.026,13.32,0.091,109.2
2019-12-13T01:25:03,42.805,6.029,0.104,-0.024,-0.006,100.0,102.0,100.0,13.3,1505.3,325.1,-0.7,1.8,2469.946,13.32,0.106,103.0
2019-12-13T01:28:03,42.805,6.029,0.072,-0.009,-0.025,102.0,102.0,100.0,13.4,1505.3,323.6,-0.7,1.8,2470.014,13.32,0.072,97.1
2019-12-13T01:31:03,42.805,6.029,0.089,-0.041,-0.03,100.0,103.0,100.0,13.4,1505.3,326.7,-0.7,1.8,2469.993,13.32,0.097,114.7
2019-12-13T01:34:03,42.805,6.029,0.082,-0.017,-0.04,102.0,103.0,99.0,13.3,1505.3,325.3,-0.7,1.8,2469.985,13.32,0.083,101.7
2019-12-13T01:37:03,42.805,6.029,0.078,-0.032,-0.042,101.0,103.0,99.0,13.3,1505.3,328.1,-0.7,1.8,2470.008,13.32,0.084,112.3
2019-12-13T01:43:03,42.805,6.029,0.077,-0.031,-0.049,101.0,102.0,100.0,13.4,1505.2,323.7,-0.8,1.9,2469.977,13.3,0.083,111.9
2019-12-13T01:46:03,42.805,6.029,0.111,-0.037,-0.041,101.0,102.0,99.0,13.4,1505.3,326.7,-0.7,1.8,2470.008,13.31,0.117,108.4
2019-12-13T01:49:03,42.805,6.029,0.094,-0.021,-0.021,101.0,102.0,99.0,13.3,1505.3,327.2,-0.7,1.8,2469.994,13.31,0.096,102.6
2019-12-13T01:52:03,42.805,6.029,0.096,-0.009,-0.02,102.0,102.0,99.0,13.4,1505.3,325.3,-0.7,1.9,2470.006,13.31,0.096,95.4
2019-12-13T01:55:03,42.805,6.029,0.074,-0.034,-0.038,101.0,102.0,100.0,13.3,1505.3,327.0,-0.7,1.9,2470.008,13.32,0.081,114.7
2019-12-13T01:58:03,42.805,6.029,0.059,-0.004,-0.039,101.0,103.0,99.0,13.4,1505.3,325.4,-0.7,1.8,2470.026,13.32,0.059,93.9
2019-12-13T02:04:03,42.805,6.029,0.073,-0.01,-0.021,101.0,102.0,100.0,13.4,1505.2,323.9,-0.8,1.8,2469.976,13.3,0.073,97.8
2019-12-13T02:07:03,42.805,6.029,0.106,-0.024,-0.044,102.0,102.0,100.0,13.3,1505.3,323.8,-0.7,1.9,2469.984,13.31,0.108,102.8
2019-12-13T02:10:03,42.805,6.029,0.089,-0.018,-0.042,102.0,102.0,100.0,13.3,1505.3,325.9,-0.7,1.9,2469.988,13.31,0.09,101.4
2019-12-13T02:13:03,42.805,6.029,0.11,-0.007,-0.029,101.0,103.0,100.0,13.4,1505.3,324.8,-0.7,1.8,2470.017,13.31,0.11,93.6
2019-12-13T02:16:03,42.805,6.029,0.096,-0.026,-0.025,101.0,102.0,100.0,13.3,1505.3,324.6,-0.7,1.9,2470.002,13.32,0.099,105.2
2019-12-13T02:19:03,42.805,6.029,0.109,-0.012,-0.04,101.0,103.0,100.0,13.4,1505.3,324.9,-0.7,1.8,2469.993,13.32,0.109,96.3
2019-12-13T02:22:03,42.805,6.029,0.109,-0.025,-0.015,101.0,102.0,99.0,13.4,1505.3,326.5,-0.7,1.8,2470.005,13.32,0.111,102.9
2019-12-13T02:25:03,42.805,6.029,0.078,-0.002,-0.044,101.0,104.0,100.0,13.3,1505.3,324.7,-0.7,1.8,2470.018,13.32,0.078,91.5
2019-12-13T02:28:03,42.805,6.029,0.11,-0.028,-0.03,102.0,102.0,99.0,13.3,1505.3,324.8,-0.7,1.8,2470.001,13.32,0.113,104.3
2019-12-13T02:31:03,42.805,6.029,0.064,-0.007,-0.045,102.0,102.0,100.0,13.4,1505.3,323.7,-0.7,1.8,2469.969,13.32,0.064,96.2
2019-12-13T02:34:03,42.805,6.029,0.093,-0.015,-0.035,100.0,101.0,101.0,13.3,1505.3,324.6,-0.7,1.8,2469.947,13.32,0.094,99.2
2019-12-13T02:37:03,42.805,6.029,0.104,-0.04,-0.049,100.0,102.0,101.0,13.4,1505.3,324.5,-0.7,1.8,2469.982,13.32,0.111,111.0
2019-12-13T02:40:03,42.805,6.029,0.09,-0.026,-0.045,101.0,102.0,100.0,13.3,1505.3,325.3,-0.7,1.8,2469.968,13.32,0.093,106.1
2019-12-13T02:43:03,42.805,6.029,0.083,-0.006,-0.018,102.0,103.0,99.0,13.4,1505.3,324.8,-0.8,1.9,2470.015,13.32,0.083,94.1
2019-12-13T02:46:03,42.805,6.029,0.099,-0.021,-0.04,101.0,103.0,100.0,13.4,1505.3,327.4,-0.7,1.8,2469.999,13.32,0.101,102.0
2019-12-13T02:49:03,42.805,6.029,0.096,-0.028,-0.067,102.0,102.0,99.0,13.4,1505.3,326.9,-0.7,1.8,2470.001,13.32,0.1,106.3
2019-12-13T02:52:03,42.805,6.029,0.09,-0.014,-0.033,101.0,103.0,99.0,13.4,1505.3,328.6,-0.7,1.9,2470.03,13.32,0.091,98.8
2019-12-13T02:55:03,42.805,6.029,0.087,-0.015,-0.01,102.0,102.0,100.0,13.4,1505.3,328.8,-0.8,1.8,2469.982,13.32,0.088,99.8
2019-12-13T02:58:03,42.805,6.029,0.079,-0.018,-0.011,101.0,104.0,99.0,13.3,1505.3,326.1,-0.7,1.8,2469.951,13.32,0.081,102.8
2019-12-13T03:04:03,42.805,6.029,0.093,-0.024,-0.041,101.0,103.0,100.0,13.3,1505.2,328.5,-0.7,1.8,2469.988,13.3,0.096,104.5
2019-12-13T03:07:03,42.805,6.029,0.079,-0.032,-0.064,101.0,101.0,101.0,13.4,1505.3,326.4,-0.7,1.8,2470.024,13.31,0.085,112.0
2019-12-13T03:10:03,42.805,6.029,0.082,-0.015,-0.034,103.0,104.0,99.0,13.4,1505.3,324.7,-0.7,1.9,2470.024,13.31,0.083,100.4
2019-12-13T03:13:03,42.805,6.029,0.088,-0.021,-0.028,101.0,102.0,100.0,13.4,1505.3,324.9,-0.7,1.8,2469.984,13.31,0.09,103.4
2019-12-13T03:16:03,42.805,6.029,0.094,-0.018,-0.039,101.0,103.0,101.0,13.3,1505.3,327.7,-0.7,1.8,2470.015,13.32,0.095,100.8
2019-12-13T03:19:03,42.805,6.029,0.097,-0.034,-0.042,101.0,102.0,101.0,13.4,1505.3,328.5,-0.7,1.8,2469.995,13.32,0.102,109.3
2019-12-13T03:22:03,42.805,6.029,0.092,-0.021,-0.017,101.0,102.0,101.0,13.4,1505.3,323.9,-0.8,1.8,2470.018,13.32,0.094,102.9
2019-12-13T03:25:03,42.805,6.029,0.08,-0.012,-0.042,103.0,101.0,99.0,13.4,1505.3,328.0,-0.7,1.8,2469.987,13.32,0.08,98.5
2019-12-13T03:28:03,42.805,6.029,0.081,-0.021,-0.04,102.0,102.0,99.0,13.4,1505.3,324.3,-0.7,1.8,2470.008,13.32,0.083,104.5
2019-12-13T03:31:03,42.805,6.029,0.073,-0.016,-0.029,102.0,102.0,99.0,13.4,1505.3,324.0,-0.7,1.9,2470.007,13.32,0.074,102.4
2019-12-13T03:34:03,42.805,6.029,0.093,-0.023,-0.027,101.0,103.0,99.0,13.3,1505.3,328.3,-0.7,1.8,2470.011,13.32,0.095,103.9
2019-12-13T03:37:03,42.805,6.029,0.106,-0.003,-0.037,101.0,102.0,99.0,13.4,1505.3,324.5,-0.7,1.8,2470.051,13.32,0.106,91.6
2019-12-13T03:40:03,42.805,6.029,0.092,-0.013,-0.028,101.0,102.0,99.0,13.3,1505.3,326.0,-0.7,1.8,2470.048,13.32,0.092,98.0
2019-12-13T03:43:03,42.805,6.029,0.112,-0.022,-0.04,102.0,101.0,100.0,13.4,1505.3,328.1,-0.7,1.8,2469.981,13.32,0.114,101.1
2019-12-13T03:46:03,42.805,6.029,0.076,-0.003,-0.031,101.0,101.0,99.0,13.4,1505.3,327.0,-0.7,1.9,2470.019,13.32,0.076,92.3
2019-12-13T03:49:03,42.805,6.029,0.07,-0.001,-0.029,101.0,104.0,99.0,13.3,1505.3,327.9,-0.7,1.8,2470.045,13.32,0.07,90.8
2019-12-13T03:52:03,42.805,6.029,0.101,-0.02,-0.031,102.0,102.0,100.0,13.4,1505.3,328.4,-0.7,1.9,2470.028,13.32,0.102,101.2
2019-12-13T03:55:03,42.805,6.029,0.091,-0.022,-0.009,102.0,101.0,99.0,13.4,1505.3,325.5,-0.7,1.9,2470.057,13.32,0.093,103.6
2019-12-13T03:58:03,42.805,6.029,0.082,-0.009,-0.012,102.0,102.0,99.0,13.3,1505.3,325.6,-0.7,1.8,2470.064,13.32,0.082,96.3
2019-12-13T04:04:03,42.805,6.029,0.085,-0.013,-0.014,102.0,103.0,101.0,13.3,1505.2,324.6,-0.8,1.8,2470.062,13.3,0.085,98.7
2019-12-13T04:07:03,42.805,6.029,0.075,0.009,-0.019,101.0,103.0,100.0,13.3,1505.3,328.5,-0.7,1.8,2470.099,13.31,0.075,83.2
2019-12-13T04:10:03,42.805,6.029,0.099,-0.02,-0.01,103.0,101.0,99.0,13.4,1505.3,324.6,-0.7,1.9,2470.009,13.31,0.101,101.4
2019-12-13T04:13:03,42.805,6.029,0.083,0.0,-0.025,102.0,104.0,99.0,13.3,1505.3,324.4,-0.7,1.8,2470.095,13.31,0.082,90.0
2019-12-13T04:16:03,42.805,6.029,0.107,-0.011,-0.004,100.0,101.0,99.0,13.4,1505.3,326.9,-0.7,1.8,2470.045,13.32,0.107,95.9
2019-12-13T04:19:03,42.805,6.029,0.09,0.011,-0.038,101.0,103.0,100.0,13.4,1505.3,327.0,-0.7,1.8,2470.07,13.32,0.09,83.0
2019-12-13T04:22:03,42.805,6.029,0.072,-0.004,-0.065,102.0,104.0,97.0,13.3,1505.3,326.9,-0.7,1.8,2470.066,13.32,0.072,93.2
2019-12-13T04:25:03,42.805,6.029,0.082,-0.01,-0.031,102.0,102.0,100.0,13.3,1505.3,326.6,-0.7,1.8,2470.096,13.32,0.082,97.0
2019-12-13T04:28:03,42.805,6.029,0.113,0.006,-0.031,102.0,102.0,100.0,13.4,1505.3,324.0,-0.7,1.9,2470.026,13.32,0.113,87.0
2019-12-13T04:31:03,42.805,6.029,0.077,-0.011,-0.025,103.0,103.0,100.0,13.3,1505.3,323.2,-0.7,1.8,2470.089,13.32,0.077,98.1
2019-12-13T04:34:03,42.805,6.029,0.087,-0.022,-0.008,102.0,103.0,100.0,13.4,1505.3,327.1,-0.7,1.9,2470.094,13.32,0.089,104.2
2019-12-13T04:37:03,42.805,6.029,0.073,-0.008,-0.004,102.0,103.0,100.0,13.3,1505.3,326.9,-0.7,1.8,2470.08,13.32,0.073,96.3
2019-12-13T04:40:03,42.805,6.029,0.083,-0.008,-0.047,101.0,103.0,99.0,13.4,1505.3,325.0,-0.7,1.8,2470.117,13.32,0.083,95.5
2019-12-13T04:43:03,42.805,6.029,0.071,-0.027,-0.043,102.0,102.0,99.0,13.4,1505.3,327.3,-0.7,1.8,2470.082,13.32,0.075,110.8
2019-12-13T04:46:03,42.805,6.029,0.096,-0.019,-0.027,102.0,101.0,99.0,13.4,1505.3,323.9,-0.7,1.8,2470.057,13.32,0.097,101.2
2019-12-13T04:49:03,42.805,6.029,0.081,-0.012,-0.052,102.0,104.0,99.0,13.4,1505.3,324.2,-0.7,1.8,2470.1,13.32,0.081,98.4
2019-12-13T04:52:03,42.805,6.029,0.101,-0.019,-0.03,103.0,104.0,98.0,13.4,1505.3,326.0,-0.7,1.9,2470.119,13.32,0.102,100.7
2019-12-13T04:55:03,42.805,6.029,0.109,0.002,0.014,102.0,102.0,99.0,13.3,1505.3,325.5,-0.7,1.8,2470.074,13.32,0.109,89.0
2019-12-13T04:58:03,42.805,6.029,0.094,-0.004,-0.02,100.0,103.0,99.0,13.4,1505.3,326.0,-0.7,1.8,2470.119,13.32,0.094,92.4
2019-12-13T05:04:03,42.805,6.029,0.091,-0.011,-0.016,101.0,102.0,99.0,13.4,1505.2,324.5,-0.7,1.9,2470.146,13.3,0.091,96.9
2019-12-13T05:07:03,42.805,6.029,0.093,-0.014,-0.026,102.0,102.0,99.0,13.3,1505.3,324.9,-0.8,1.8,2470.177,13.31,0.094,98.6
2019-12-13T05:10:03,42.805,6.029,0.078,0.001,-0.004,101.0,103.0,99.0,13.3,1505.3,324.3,-0.7,1.8,2470.151,13.31,0.078,89.3
2019-12-13T05:13:03,42.805,6.029,0.092,-0.017,-0.007,100.0,103.0,99.0,13.4,1505.3,325.8,-0.7,1.9,2470.171,13.31,0.093,100.5
2019-12-13T05:16:03,42.805,6.029,0.097,0.006,-0.047,101.0,102.0,100.0,13.3,1505.3,324.8,-0.7,1.8,2470.168,13.32,0.097,86.5
2019-12-13T05:19:03,42.805,6.029,0.101,-0.018,-0.018,102.0,102.0,100.0,13.4,1505.3,326.9,-0.7,1.8,2470.151,13.32,0.102,100.1
2019-12-13T05:22:03,42.805,6.029,0.09,0.014,-0.024,102.0,104.0,100.0,13.3,1505.3,323.2,-0.7,1.8,2470.145,13.32,0.091,81.2
2019-12-13T05:25:03,42.805,6.029,0.07,-0.015,-0.013,100.0,102.0,99.0,13.4,1505.3,328.5,-0.7,1.8,2470.175,13.32,0.071,102.1
2019-12-13T05:28:03,42.805,6.029,0.094,-0.027,-0.004,101.0,102.0,100.0,13.4,1505.3,326.4,-0.7,1.8,2470.145,13.32,0.097,106.0
2019-12-13T05:31:03,42.805,6.029,0.087,-0.007,-0.008,100.0,102.0,100.0,13.3,1505.3,323.8,-0.7,1.9,2470.14,13.32,0.087,94.6
2019-12-13T05:34:03,42.805,6.029,0.069,-0.011,-0.041,101.0,104.0,100.0,13.4,1505.3,327.5,-0.8,1.8,2470.195,13.32,0.069,99.1
2019-12-13T05:37:03,42.805,6.029,0.087,-0.018,-0.025,102.0,103.0,100.0,13.3,1505.3,324.6,-0.7,1.8,2470.15,13.32,0.088,101.7
2019-12-13T05:40:03,42.805,6.029,0.09,-0.009,-0.037,100.0,102.0,99.0,13.4,1505.3,325.6,-0.7,1.8,2470.172,13.32,0.09,95.7
2019-12-13T05:43:03,42.805,6.029,0.116,-0.011,-0.02,101.0,103.0,99.0,13.3,1505.3,324.4,-0.7,1.8,2470.123,13.32,0.116,95.4
2019-12-13T05:46:03,42.805,6.029,0.095,-0.014,-0.011,102.0,103.0,100.0,13.3,1505.3,327.3,-0.7,1.9,2470.142,13.32,0.096,98.4
2019-12-13T05:49:03,42.805,6.029,0.092,-0.017,-0.042,101.0,102.0,99.0,13.4,1505.3,325.8,-0.7,1.9,2470.152,13.32,0.093,100.5
2019-12-13T05:52:03,42.805,6.029,0.09,-0.008,-0.01,101.0,102.0,99.0,13.3,1505.3,324.4,-0.7,1.8,2470.183,13.32,0.09,95.1
2019-12-13T05:55:03,42.805,6.029,0.083,-0.011,-0.032,102.0,103.0,99.0,13.3,1505.3,324.8,-0.7,1.8,2470.162,13.32,0.083,97.5
2019-12-13T05:58:03,42.805,6.029,0.085,0.004,-0.033,103.0,101.0,99.0,13.4,1505.3,323.7,-0.7,1.8,2470.163,13.32,0.085,87.3
2019-12-13T06:04:03,42.805,6.029,0.088,-0.001,-0.011,101.0,102.0,99.0,13.4,1505.2,327.2,-0.7,1.8,2470.21,13.3,0.088,90.6
2019-12-13T06:07:03,42.805,6.029,0.085,-0.036,-0.056,103.0,102.0,98.0,13.4,1505.3,328.3,-0.7,1.8,2470.188,13.31,0.092,113.0
2019-12-13T06:10:03,42.805,6.029,0.098,-0.016,-0.026,102.0,102.0,99.0,13.4,1505.3,327.0,-0.7,1.8,2470.203,13.31,0.099,99.3
2019-12-13T06:13:03,42.805,6.029,0.111,-0.019,0.008,101.0,102.0,99.0,13.4,1505.3,328.0,-0.7,1.8,2470.19,13.31,0.112,99.7
2019-12-13T06:16:03,42.805,6.029,0.097,-0.001,-0.005,100.0,102.0,100.0,13.3,1505.3,324.5,-0.7,1.8,2470.193,13.32,0.097,90.6
2019-12-13T06:19:03,42.805,6.029,0.107,-0.028,-0.042,100.0,102.0,99.0,13.4,1505.3,326.0,-0.8,1.8,2470.218,13.32,0.11,104.7
2019-12-13T06:22:03,42.805,6.029,0.099,-0.014,-0.024,101.0,100.0,99.0,13.4,1505.3,325.2,-0.7,1.9,2470.192,13.32,0.099,98.0
2019-12-13T06:25:03,42.805,6.029,0.08,-0.017,-0.057,101.0,102.0,99.0,13.3,1505.3,325.4,-0.7,1.8,2470.214,13.32,0.081,102.0
2019-12-13T06:28:03,42.805,6.029,0.092,-0.019,-0.021,101.0,102.0,99.0,13.4,1505.3,327.0,-0.7,1.8,2470.198,13.32,0.093,101.7
2019-12-13T06:31:03,42.805,6.029,0.113,-0.014,0.004,102.0,102.0,98.0,13.4,1505.3,324.5,-0.7,1.8,2470.235,13.32,0.113,97.1
2019-12-13T06:34:03,42.805,6.029,0.109,-0.025,0.023,101.0,102.0,100.0,13.4,1505.3,327.6,-0.7,1.8,2470.25,13.32,0.111,102.9
2019-12-13T06:37:03,42.805,6.029,0.106,0.005,0.02,100.0,102.0,100.0,13.4,1505.3,324.4,-0.7,1.8,2470.234,13.32,0.106,87.3
2019-12-13T06:40:03,42.805,6.029,0.113,-0.008,-0.02,101.0,102.0,99.0,13.4,1505.3,324.7,-0.7,1.8,2470.215,13.32,0.113,94.0
2019-12-13T06:43:03,42.805,6.029,0.097,-0.014,-0.019,101.0,103.0,100.0,13.3,1505.3,327.0,-0.7,1.8,2470.221,13.32,0.098,98.2
2019-12-13T06:46:03,42.805,6.029,0.101,-0.011,-0.002,101.0,103.0,99.0,13.4,1505.3,323.9,-0.7,1.8,2470.219,13.32,0.101,96.2
2019-12-13T06:49:03,42.805,6.029,0.088,0.007,-0.003,101.0,102.0,100.0,13.3,1505.3,323.1,-0.7,1.8,2470.223,13.32,0.088,85.5
2019-12-13T06:52:03,42.805,6.029,0.085,-0.02,-0.03,102.0,102.0,100.0,13.3,1505.3,327.0,-0.7,1.9,2470.241,13.32,0.087,103.2
2019-12-13T06:55:03,42.805,6.029,0.11,-0.043,-0.029,102.0,102.0,99.0,13.4,1505.3,328.1,-0.7,1.8,2470.242,13.32,0.118,111.3
2019-12-13T06:58:03,42.805,6.029,0.099,-0.019,-0.03,102.0,102.0,99.0,13.4,1505.3,323.0,-0.7,1.8,2470.254,13.32,0.1,100.9
2019-12-13T07:04:03,42.805,6.029,0.099,-0.025,-0.012,102.0,102.0,99.0,13.4,1505.2,326.8,-0.8,1.8,2470.283,13.3,0.102,104.2
2019-12-13T07:07:03,42.805,6.029,0.069,-0.001,-0.028,101.0,102.0,99.0,13.4,1505.3,324.5,-0.7,1.9,2470.246,13.31,0.069,90.8
2019-12-13T07:10:03,42.805,6.029,0.092,-0.033,-0.041,102.0,102.0,98.0,13.4,1505.3,325.9,-0.7,1.8,2470.278,13.31,0.097,109.7
2019-12-13T07:13:03,42.805,6.029,0.118,-0.037,-0.005,103.0,102.0,100.0,13.3,1505.3,327.4,-0.7,1.9,2470.283,13.31,0.123,107.4
2019-12-13T07:16:03,42.805,6.029,0.08,-0.016,-0.049,101.0,103.0,99.0,13.4,1505.3,324.2,-0.7,1.8,2470.308,13.32,0.081,101.3
2019-12-13T07:19:03,42.805,6.029,0.113,-0.024,-0.043,101.0,103.0,100.0,13.4,1505.3,325.3,-0.7,1.8,2470.255,13.32,0.115,102.0
2019-12-13T07:22:03,42.805,6.029,0.086,-0.007,-0.022,101.0,102.0,101.0,13.4,1505.3,324.7,-0.7,1.8,2470.27,13.32,0.086,94.7
2019-12-13T07:25:03,42.805,6.029,0.079,-0.029,-0.001,102.0,103.0,100.0,13.4,1505.3,327.9,-0.7,1.8,2470.23,13.32,0.084,110.2
2019-12-13T07:28:03,42.805,6.029,0.092,-0.016,-0.05,101.0,103.0,100.0,13.4,1505.3,324.3,-0.7,1.8,2470.295,13.32,0.093,99.9
2019-12-13T07:31:02,42.805,6.029,0.12,-0.03,0.003,101.0,102.0,99.0,13.4,1505.3,324.2,-0.7,1.9,2470.252,13.32,0.123,104.0
2019-12-13T07:34:02,42.805,6.029,0.108,-0.005,0.007,101.0,101.0,99.0,13.4,1505.3,323.8,-0.7,1.8,2470.262,13.32,0.108,92.6
2019-12-13T07:37:02,42.805,6.029,0.127,-0.015,-0.001,102.0,102.0,99.0,13.4,1505.3,323.4,-0.7,1.8,2470.266,13.32,0.127,96.7
2019-12-13T07:40:03,42.805,6.029,0.091,-0.011,-0.038,102.0,102.0,99.0,13.4,1505.3,326.3,-0.7,1.8,2470.269,13.32,0.091,96.9
2019-12-13T07:43:02,42.805,6.029,0.109,-0.006,-0.01,101.0,101.0,100.0,13.4,1505.3,324.9,-0.7,1.8,2470.225,13.32,0.109,93.1
2019-12-13T07:46:03,42.805,6.029,0.12,-0.02,-0.005,101.0,101.0,100.0,13.4,1505.3,326.9,-0.7,1.8,2470.274,13.32,0.121,99.5
2019-12-13T07:49:03,42.805,6.029,0.109,-0.024,0.002,101.0,102.0,100.0,13.4,1505.3,328.1,-0.7,1.8,2470.268,13.32,0.111,102.4
2019-12-13T07:52:03,42.805,6.029,0.12,-0.01,-0.033,101.0,101.0,100.0,13.4,1505.3,326.5,-0.7,1.8,2470.262,13.32,0.12,94.8
2019-12-13T07:55:02,42.805,6.029,0.109,-0.015,-0.039,100.0,102.0,99.0,13.3,1505.3,327.2,-0.7,1.8,2470.246,13.32,0.11,97.8
2019-12-13T07:58:03,42.805,6.029,0.106,-0.035,-0.026,102.0,101.0,100.0,13.3,1505.3,325.4,-0.7,1.8,2470.254,13.32,0.111,108.3
2019-12-13T08:04:02,42.805,6.029,0.097,-0.012,0.009,101.0,102.0,99.0,13.4,1505.2,327.7,-0.8,1.8,2470.324,13.3,0.097,97.1
2019-12-13T08:07:02,42.805,6.029,0.113,-0.017,-0.019,101.0,102.0,99.0,13.4,1505.3,326.9,-0.7,1.8,2470.219,13.31,0.114,98.6
2019-12-13T08:10:03,42.805,6.029,0.114,-0.011,-0.026,102.0,102.0,100.0,13.4,1505.3,324.7,-0.7,1.8,2470.263,13.31,0.114,95.5
2019-12-13T08:13:02,42.805,6.029,0.113,-0.018,-0.037,100.0,102.0,99.0,13.4,1505.3,323.5,-0.7,1.9,2470.272,13.31,0.114,99.0
2019-12-13T08:16:02,42.805,6.029,0.123,0.007,-0.022,102.0,102.0,99.0,13.3,1505.3,324.3,-0.7,1.8,2470.222,13.32,0.123,86.7
2019-12-13T08:19:02,42.805,6.029,0.099,-0.026,-0.043,102.0,102.0,99.0,13.3,1505.3,328.0,-0.7,1.8,2470.25,13.32,0.102,104.7
2019-12-13T08:22:02,42.805,6.029,0.122,-0.002,-0.022,101.0,102.0,99.0,13.4,1505.3,326.2,-0.7,1.8,2470.263,13.32,0.122,90.9
2019-12-13T08:25:02,42.805,6.029,0.102,-0.028,-0.018,101.0,102.0,99.0,13.3,1505.3,328.1,-0.7,1.9,2470.274,13.32,0.105,105.3
2019-12-13T08:28:02,42.805,6.029,0.102,-0.023,-0.02,102.0,102.0,99.0,13.4,1505.3,326.7,-0.7,1.8,2470.244,13.32,0.104,102.7
2019-12-13T08:31:02,42.805,6.029,0.084,-0.014,-0.019,101.0,102.0,99.0,13.3,1505.3,327.7,-0.7,1.9,2470.263,13.32,0.085,99.5
2019-12-13T08:34:02,42.805,6.029,0.137,-0.034,-0.011,101.0,102.0,100.0,13.4,1505.3,324.5,-0.7,1.9,2470.236,13.32,0.141,103.9
2019-12-13T08:37:02,42.805,6.029,0.122,-0.018,-0.021,101.0,101.0,100.0,13.4,1505.3,324.8,-0.7,1.8,2470.234,13.32,0.123,98.4
2019-12-13T08:40:02,42.805,6.029,0.121,-0.037,0.006,100.0,102.0,100.0,13.3,1505.3,327.1,-0.7,1.8,2470.243,13.32,0.126,107.0
2019-12-13T08:43:02,42.805,6.029,0.112,-0.028,-0.056,102.0,102.0,99.0,13.4,1505.3,323.8,-0.7,1.8,2470.266,13.32,0.115,104.0
2019-12-13T08:46:02,42.805,6.029,0.124,-0.03,-0.013,101.0,102.0,99.0,13.3,1505.3,326.9,-0.7,1.8,2470.292,13.32,0.127,103.6
2019-12-13T08:49:02,42.805,6.029,0.105,-0.043,-0.056,101.0,103.0,100.0,13.4,1505.3,327.0,-0.7,1.8,2470.253,13.32,0.113,112.3
2019-12-13T08:52:02,42.805,6.029,0.131,-0.056,-0.014,101.0,102.0,100.0,13.4,1505.3,324.8,-0.7,1.9,2470.302,13.32,0.142,113.1
2019-12-13T08:55:02,42.805,6.029,0.119,-0.018,0.002,102.0,102.0,99.0,13.4,1505.3,327.3,-0.7,1.8,2470.267,13.32,0.12,98.6
2019-12-13T08:58:02,42.805,6.029,0.103,-0.024,-0.016,101.0,101.0,100.0,13.3,1505.3,328.2,-0.7,1.8,2470.206,13.32,0.105,103.1
2019-12-13T09:04:02,42.805,6.029,0.086,-0.007,0.01,101.0,102.0,99.0,13.3,1505.2,327.5,-0.8,1.8,2470.279,13.3,0.086,94.7
2019-12-13T09:07:02,42.805,6.029,0.109,-0.014,-0.008,101.0,102.0,98.0,13.3,1505.3,326.7,-0.7,1.8,2470.255,13.31,0.109,97.3
2019-12-13T09:10:02,42.805,6.029,0.119,-0.027,-0.014,101.0,101.0,101.0,13.4,1505.3,325.9,-0.7,1.8,2470.27,13.31,0.122,102.8
2019-12-13T09:13:02,42.805,6.029,0.114,-0.015,-0.02,103.0,101.0,99.0,13.3,1505.3,323.0,-0.7,1.8,2470.27,13.31,0.114,97.5
2019-12-13T09:16:02,42.805,6.029,0.09,-0.017,-0.042,101.0,103.0,99.0,13.3,1505.3,326.3,-0.7,1.9,2470.302,13.32,0.091,100.7
2019-12-13T09:19:02,42.805,6.029,0.122,-0.027,-0.018,101.0,100.0,100.0,13.4,1505.3,326.0,-0.7,1.8,2470.229,13.32,0.124,102.5
2019-12-13T09:22:02,42.805,6.029,0.112,-0.006,-0.023,101.0,101.0,100.0,13.4,1505.3,324.9,-0.7,1.8,2470.258,13.32,0.112,93.1
2019-12-13T09:25:02,42.805,6.029,0.088,-0.024,-0.03,102.0,102.0,101.0,13.4,1505.3,324.1,-0.7,1.8,2470.218,13.32,0.091,105.3
2019-12-13T09:28:02,42.805,6.029,0.118,-0.025,-0.039,102.0,103.0,100.0,13.4,1505.3,327.8,-0.7,1.8,2470.272,13.32,0.12,102.0
2019-12-13T09:31:02,42.805,6.029,0.124,-0.014,0.002,102.0,102.0,99.0,13.4,1505.3,323.8,-0.7,1.8,2470.25,13.32,0.124,96.4
2019-12-13T09:34:02,42.805,6.029,0.104,-0.019,-0.037,102.0,102.0,99.0,13.3,1505.3,324.9,-0.7,1.9,2470.238,13.32,0.105,100.4
2019-12-13T09:37:02,42.805,6.029,0.11,-0.031,0.002,102.0,101.0,99.0,13.3,1505.3,324.7,-0.7,1.9,2470.255,13.32,0.114,105.7
2019-12-13T09:40:02,42.805,6.029,0.099,-0.023,-0.027,101.0,103.0,100.0,13.4,1505.3,326.1,-0.7,1.8,2470.234,13.32,0.101,103.1
2019-12-13T09:43:02,42.805,6.029,0.094,-0.036,-0.02,102.0,102.0,100.0,13.3,1505.3,326.0,-0.7,1.8,2470.251,13.32,0.1,111.0
2019-12-13T09:46:02,42.805,6.029,0.118,-0.02,0.002,101.0,101.0,101.0,13.3,1505.3,324.5,-0.7,1.8,2470.229,13.32,0.119,99.6
2019-12-13T09:49:02,42.805,6.029,0.098,-0.023,-0.026,101.0,102.0,98.0,13.4,1505.3,325.2,-0.7,1.8,2470.234,13.32,0.1,103.2
2019-12-13T09:52:02,42.805,6.029,0.107,-0.052,-0.001,101.0,101.0,100.0,13.4,1505.3,326.5,-0.7,1.8,2470.233,13.32,0.118,115.9
2019-12-13T09:55:02,42.805,6.029,0.111,-0.047,0.001,101.0,102.0,100.0,13.4,1505.3,325.9,-0.7,1.8,2470.255,13.32,0.12,112.9
2019-12-13T09:58:02,42.805,6.029,0.103,-0.026,-0.019,101.0,101.0,100.0,13.4,1505.3,325.7,-0.7,1.9,2470.232,13.32,0.106,104.2
2019-12-13T10:04:02,42.805,6.029,0.099,-0.013,-0.013,101.0,102.0,99.0,13.3,1505.2,327.5,-0.7,1.8,2470.273,13.3,0.099,97.5